Weather in Tarbes

France     43˚14′21″N   0˚04′02″E
temp.,
°C
wind,
m/s
gust,
m/s
humid.,
%
clouds,
%
prec.,
mm/h
press.,
hPa
HPBL,
m
28 november, sat
sat2801:00+9˚sse118790 0.0 101022
04:00+8˚se1185100 0.0 100822
07:00+8˚s1182100 0.0 100823
10:00+12˚ssw116967 0.0 100841
13:00+14˚ne226583 0.0 1008474
16:00+13˚e1273100 0.0 1008187
19:00+9˚sse129181 0.0 101025
22:00+8˚se11899 0.0 101222
29 november, sun
sun2901:00+7˚se118816 0.0 101322
04:00+7˚ese11851 0.0 101422
07:00+7˚se11810 0.0 101422
10:00+11˚sse01690 0.0 101640
13:00+16˚nw12550 0.0 1016383
16:00+15˚n12670 0.0 101693
19:00+9˚s11860 0.0 101722
22:00+8˚ssw11850 0.0 101922
30 november, mon
mon3001:00+8˚sw11830 0.0 102022
04:00+7˚sw11830 0.0 102122
07:00+7˚sw118425 0.0 102222
10:00+10˚w117810 0.0 102381
13:00+13˚wnw236728 0.0 1023443
16:00+12˚wnw247162 0.0 1023376
19:00+6˚wsw118478 0.0 102422
22:00+5˚wsw118741 0.0 102622
1 december, tue
tue101:00+4˚wsw118737 0.0 102622
04:00+3˚w11860 0.0 102622
07:00+3˚wsw118613 0.0 102622
10:00+6˚wnw117563 0.0 102668
13:00+10˚nw225673 0.0 1025370
16:00+9˚wnw2364100 0.0 1024223
19:00+5˚w1278100 0.0 102423
22:00+6˚w2373100 0.0 1024121
2 december, wed
wed201:00+6˚w2477100 0.1 1022194
04:00+6˚wsw3584100 0.4 1021218
07:00+6˚w2386100 0.4 102087
10:00+7˚wnw0188100 0.1 102041
13:00+10˚n337875 0.4 1018562
16:00+9˚nnw237558 0.3 1017715
19:00+4˚ne247947 0.4 1018177
22:00+2˚ene118421 0.0 101822